Location: El Para�so
(10.4896°N, 66.9245°W)
Time: 05:35:11
(UTC+00:00)

H-2A R/B - Pass Details

Date: 08 August 2020
Orbit: 733 x 836 km, 98.2° (Epoch: 21 September)

Event Time Altitude Azimuth Distance (km) Brightness Sun altitude
Exits shadow 23:44:13 - 152° (SSE) 2,461 4.2 -13.8°
Reaches altitude 10° 23:44:22 10° 152° (SSE) 2,403 4.1 -13.9°
Maximum altitude 23:49:31 51° 77° (ENE) 1,000 2.3 -15.0°
Drops below altitude 10° 23:54:31 10° 2° (N) 2,340 4.7 -16.2°
Sets 23:56:51 0° 357° (N) 3,251 5.6 -16.7°
